TimeEST,TemperatureF,Dew PointF,Humidity,Sea Level PressureIn,VisibilityMPH,Wind Direction,Wind SpeedMPH,Gust SpeedMPH,PrecipitationIn,Events,Conditions,WindDirDegrees,DateUTC
12:53 AM,71.1,63.0,75,30.15,10.0,NNE,12.7,26.5,N/A,,Partly Cloudy,30,2013-12-13 05:53:00
1:53 AM,71.1,64.0,78,30.13,10.0,NE,17.3,26.5,N/A,,Clear,40,2013-12-13 06:53:00
2:53 AM,71.1,64.0,78,30.11,10.0,NE,13.8,24.2,N/A,,Clear,50,2013-12-13 07:53:00
3:53 AM,71.1,63.0,75,30.10,10.0,NE,16.1,26.5,N/A,,Overcast,40,2013-12-13 08:53:00
4:53 AM,71.1,63.0,75,30.11,10.0,NE,18.4,27.6,N/A,,Overcast,40,2013-12-13 09:53:00
5:53 AM,71.1,63.0,75,30.11,10.0,NE,16.1,24.2,N/A,,Mostly Cloudy,40,2013-12-13 10:53:00
6:53 AM,71.1,64.0,78,30.12,10.0,ENE,12.7,23.0,N/A,,Clear,60,2013-12-13 11:53:00
7:53 AM,72.0,64.0,76,30.14,10.0,ENE,11.5,18.4,N/A,,Clear,60,2013-12-13 12:53:00
8:53 AM,73.9,66.0,76,30.14,10.0,ENE,11.5,19.6,N/A,,Clear,60,2013-12-13 13:53:00
9:53 AM,75.9,66.9,74,30.15,10.0,ENE,15.0,20.7,N/A,,Clear,70,2013-12-13 14:53:00
10:53 AM,78.1,69.1,74,30.15,10.0,ENE,10.4,21.9,N/A,,Clear,70,2013-12-13 15:53:00
11:53 AM,79.0,68.0,69,30.14,10.0,East,16.1,24.2,N/A,,Partly Cloudy,90,2013-12-13 16:53:00
12:53 PM,80.1,69.1,69,30.10,10.0,East,18.4,24.2,N/A,,Clear,90,2013-12-13 17:53:00
1:53 PM,80.1,69.1,69,30.07,10.0,East,16.1,24.2,N/A,,Clear,80,2013-12-13 18:53:00
2:53 PM,79.0,69.1,72,30.06,10.0,East,17.3,27.6,N/A,,Clear,80,2013-12-13 19:53:00
3:53 PM,79.0,69.1,72,30.05,10.0,East,13.8,21.9,N/A,,Partly Cloudy,80,2013-12-13 20:53:00
4:53 PM,78.1,69.1,74,30.06,10.0,East,12.7,-,N/A,,Scattered Clouds,80,2013-12-13 21:53:00
5:53 PM,75.9,69.1,79,30.06,10.0,East,11.5,-,N/A,,Mostly Cloudy,80,2013-12-13 22:53:00
6:53 PM,75.9,70.0,82,30.07,10.0,ENE,10.4,-,N/A,,Scattered Clouds,60,2013-12-13 23:53:00
7:53 PM,75.0,71.1,87,30.09,10.0,ENE,10.4,18.4,0.00,,Mostly Cloudy,70,2013-12-14 00:53:00
8:53 PM,75.0,71.1,87,30.08,10.0,ENE,9.2,-,N/A,,Partly Cloudy,70,2013-12-14 01:53:00
9:53 PM,77.0,70.0,79,30.08,10.0,ESE,13.8,-,0.00,,Mostly Cloudy,110,2013-12-14 02:53:00
10:53 PM,77.0,71.1,82,30.09,10.0,ESE,13.8,-,0.00,,Mostly Cloudy,120,2013-12-14 03:53:00
11:53 PM,77.0,70.0,79,30.08,10.0,ESE,13.8,-,N/A,,Clear,120,2013-12-14 04:53:00